TimeMDT,TemperatureF,Dew PointF,Humidity,Sea Level PressureIn,VisibilityMPH,Wind Direction,Wind SpeedMPH,Gust SpeedMPH,PrecipitationIn,Events,Conditions,WindDirDegrees,DateUTC
12:53 AM,55.9,28.0,34,30.06,10.0,NNW,6.9,-,N/A,,Clear,340,2012-10-14 06:53:00
1:53 AM,53.1,28.0,38,30.06,10.0,NW,8.1,-,N/A,,Clear,310,2012-10-14 07:53:00
2:53 AM,52.0,28.0,40,30.07,10.0,NW,6.9,-,N/A,,Clear,310,2012-10-14 08:53:00
3:53 AM,51.1,28.9,43,30.08,10.0,NNW,4.6,-,N/A,,Clear,330,2012-10-14 09:53:00
4:53 AM,50.0,28.9,44,30.09,10.0,NW,5.8,-,N/A,,Clear,310,2012-10-14 10:53:00
5:53 AM,50.0,28.9,44,30.12,10.0,NW,8.1,-,N/A,,Clear,320,2012-10-14 11:53:00
6:53 AM,48.9,30.0,48,30.14,10.0,NNW,8.1,-,N/A,,Clear,330,2012-10-14 12:53:00
7:53 AM,51.1,30.0,44,30.16,10.0,NNW,8.1,-,N/A,,Clear,330,2012-10-14 13:53:00
8:53 AM,55.9,32.0,40,30.17,10.0,NNW,4.6,-,N/A,,Clear,330,2012-10-14 14:53:00
9:53 AM,61.0,33.1,35,30.17,10.0,Variable,3.5,-,N/A,,Clear,0,2012-10-14 15:53:00
10:53 AM,64.9,34.0,32,30.16,10.0,ENE,5.8,-,N/A,,Clear,60,2012-10-14 16:53:00
11:53 AM,68.0,34.0,28,30.14,10.0,Variable,5.8,-,N/A,,Clear,0,2012-10-14 17:53:00
12:53 PM,70.0,33.1,26,30.12,10.0,ESE,8.1,-,N/A,,Clear,110,2012-10-14 18:53:00
1:53 PM,73.0,33.1,23,30.09,10.0,ESE,9.2,-,N/A,,Clear,110,2012-10-14 19:53:00
2:53 PM,73.9,30.9,21,30.06,10.0,Calm,Calm,-,N/A,,Clear,0,2012-10-14 20:53:00
3:53 PM,75.0,30.9,20,30.04,10.0,East,8.1,-,N/A,,Clear,100,2012-10-14 21:53:00
4:53 PM,75.0,30.0,19,30.02,10.0,ESE,8.1,-,N/A,,Clear,120,2012-10-14 22:53:00
5:53 PM,73.9,28.9,19,30.03,10.0,Variable,6.9,-,N/A,,Clear,0,2012-10-14 23:53:00
6:53 PM,69.1,28.0,22,30.04,10.0,SE,4.6,-,N/A,,Clear,140,2012-10-15 00:53:00
7:53 PM,66.9,30.0,25,30.05,10.0,South,4.6,-,N/A,,Clear,190,2012-10-15 01:53:00
8:53 PM,62.1,28.0,28,30.07,10.0,West,4.6,-,N/A,,Clear,280,2012-10-15 02:53:00
9:53 PM,57.9,27.0,31,30.09,10.0,East,3.5,-,N/A,,Clear,100,2012-10-15 03:53:00
10:53 PM,57.0,27.0,32,30.09,10.0,WNW,6.9,-,N/A,,Clear,290,2012-10-15 04:53:00
11:53 PM,53.1,26.1,35,30.09,10.0,NW,8.1,-,N/A,,Clear,310,2012-10-15 05:53:00